Flag for Bahrain Weather past 2 weeks in Manama, Bahrain

Now
91 °F

Clear.


Feels Like: 114 °F
Forecast: 93 / 104 °F
Wind: 5 mph from South

Location: Bahrain International Airport

Current Time: Aug 3, 2015 at 6:07:37 AM

Latest Report: Aug 3, 2015 at 5:00 AM


Visibility: 2 mi

Pressure: 29.53 "Hg

Humidity: 75%

Dew point: 82 °F

Historic Weather in Manama — Graph

°F

Manama temperature yesterday

Maximum temperature yesterday: 108 °F (at 2:00 PM)
Minimum temperature yesterday: 93 °F (at 1:00 AM)
Average temperature yesterday: 97 °F

Past Weeks' High & Low Weather Summary

 TemperatureHumidityPressure
High113 °F (Jul 29, 12:00 PM)84% (Jul 22, 8:00 PM)29.59 "Hg (Jul 22, 8:00 PM)
Low90 °F (Jul 23, 6:00 AM)8% (Jul 19, 1:00 PM)29.36 "Hg (Jul 20, 1:00 AM)
Average98 °F50%29.46 "Hg
* Reported Jul 19 5:00 AM — Aug 3 5:00 AM, Manama, Weather by CustomWeather, © 2015

Note: Actual official high and low records may vary slightly from our data, if they occured in-between our weather recording intervals... More about our weather records

Advertising

Manama weather history for previous 24 hours

 ConditionsComfort  
Time TempWeatherWind HumidityBarometerVisibility
5:00 AM
Mon, Aug 3
91 °FClear.5 mph75%29.53 "Hg2 mi
4:00 AM91 °FHaze.8 mph75%29.53 "Hg2 mi
3:00 AM91 °FClear.5 mph80%29.53 "Hg3 mi
2:00 AM91 °FClear.6 mph80%29.53 "Hg3 mi
1:00 AM91 °FClear.7 mph80%29.53 "Hg4 mi
12:00 AM93 °FClear.8 mph80%29.53 "Hg4 mi
11:00 PM
Sun, Aug 2
93 °FClear.6 mph75%29.53 "Hg4 mi
10:00 PM93 °FClear.7 mph80%29.56 "Hg4 mi
9:00 PM93 °FClear.9 mph80%29.56 "Hg4 mi
8:00 PM93 °FHaze.7 mph80%29.53 "Hg3 mi
7:00 PM93 °FHaze.9 mph80%29.53 "Hg3 mi
6:00 PM95 °FHaze.12 mph75%29.53 "Hg3 mi
5:00 PM97 °FHaze.10 mph67%29.53 "Hg3 mi
4:00 PM99 °FHaze.13 mph64%29.53 "Hg3 mi
3:00 PM100 °FClear.13 mph53%29.53 "Hg6 mi
2:00 PM108 °FPassing clouds.8 mph22%29.53 "HgN/A
1:00 PM106 °FSunny.8 mph32%29.56 "Hg10 mi
12:00 PM106 °FSunny.8 mph26%29.56 "Hg10 mi
11:00 AM104 °FSunny.8 mph29%29.56 "Hg10 mi
10:00 AM100 °FSunny.10 mph50%29.59 "Hg5 mi
9:00 AM97 °FSunny.14 mph60%29.59 "Hg4 mi
8:00 AM95 °FClear.13 mph67%29.59 "Hg4 mi
7:00 AM93 °FClear.14 mph80%29.56 "Hg4 mi
6:00 AM93 °FClear.7 mph80%29.56 "Hg4 mi
Weather by CustomWeather, © 2015

See weather overviewHow to use our weather pages